Погода в Кутане

Россия / Республика Саха (Якутия)     59°00′51″N   131°45′01″E
темп.,
°C
ветер,
м/с
пор.,
м/с
влажн.,
%
обл.,
%
осадки,
мм/ч
давл.,
гПа
погр.,
м
20 января, чт
чт2000:00−40ююв0010099 0.0 10399
03:00−35зсз00100100 0.0 103821
06:00−34зсз0098100 0.0 103725
09:00−35з0099100 0.0 10399
12:00−29з0191100 0.0 1037120
15:00−28зсз0095100 0.0 103715
18:00−33ююв119998 0.0 10399
21:00−35ююв1110054 0.0 10399
21 января, пт
пт2100:00−36ююв1110012 0.0 10399
03:00−37ю1110012 0.0 10409
06:00−37ю1110015 0.0 10409
09:00−37ююв1110049 0.0 10409
12:00−26зюз019287 0.0 1038101
15:00−24св009882 0.0 103611
18:00−29юв1110071 0.0 10369
21:00−30ююв119979 0.0 103610
22 января, сб
сб2200:00−31ююв119869 0.0 10359
03:00−26ю119576 0.0 103423
06:00−24ю119794 0.0 103336
09:00−20ююз2599100 0.2 1032147
12:00−15зюз3894100 0.3 1030408
15:00−14з3894100 0.6 1029532
18:00−14зюз3995100 0.2 1030360
21:00−14з3896100 0.5 1029357
23 января, вс
вс2300:00−15з2797100 0.4 1029249
03:00−15зюз2797100 0.9 1028304
06:00−16зюз2798100 0.4 1028245
09:00−15з3896100 0.9 1027374
12:00−14з3894100 0.4 1027561
15:00−14з4893100 0.8 1026766
18:00−14з4995100 0.3 1026744
21:00−14з4994100 0.8 1025709
24 января, пн
пн2400:00−14з41095100 0.6 1024774
03:00−14з4995100 1.3 1023955
06:00−14зсз4994100 0.6 1024891
09:00−15зсз4994100 1.0 1025649
12:00−15зсз3890100 0.1 1025797
15:00−15зсз2694100 0.3 1024440
18:00−17ююв1198100 0.3 102415
21:00−16ю1298100 0.8 102251